sat.trackr.live / text

‹ back to catalog

STARLINK-5088

NORAD 54000 · 2022-125AN

PAYLOAD ACTIVE UNKNOWN

§ Identity

Operator
Country
US
Launch date
2022-10-05
Launch site
AFWTR
Launch vehicle
Mass (kg)
RCS (m²)

Purposes: comms

External: N2YO · Heavens-Above · Gunter

§ Orbital elements

Epoch: 2026-09-20T21:12:21.206592Z

Period
93.85 min
Inclination
53.1602°
Eccentricity
0.0001460
Mean motion
15.34381405 rev/d
Perigee alt
461.8 km
Apogee alt
463.8 km
Semi-major
6,840.9 km
B*
-2.1955e-5
RAAN
35.7760°
Arg perigee
74.9808°
Mean anomaly
285.1356°
Rev number
21,923

§ Raw data

STARLINK-50881 54000U 22125AN  26263.88357878 -.00001118  00000+0 -21955-4 0  99922 54000  53.1602  35.7760 0001460  74.9808 285.1356 15.34381405219234

JSON: /api/v1/satellites/54000 · /tle

For live sub-satellite position, see the globe view (requires WebGL).

§ Visibility from observer

Set your observer location to see the next 7 days of passes ≥ 10°. The values pass through the URL so the page stays shareable.

No JS? Fill the form by hand. The geolocation button needs JavaScript.